カタログに戻る

THOR ABLESTAR DEB

運用中LEO
NORAD 234·DEBRIS·🇺🇸 United States

打ち上げ Jun 29, 1961 から Cape Canaveral Space Force Station

Loading…

次のパス (今後24時間)

TLE

最新Source: Space-Track

元期: Sep 13, 2026, 10:28 UTC

1 00234U 61015BS  26256.43675482  .00000185  00000-0  16306-3 0  9995
2 00234  66.8760 301.5682 0063497  61.9675 298.7815 14.04148047323823

AllMySatでTHOR ABLESTAR DEBをリアルタイム追跡

Download on the App Store